FW2111 Weather Reports


Display with metric or nautical units.
time (UTC)temp
F
wind
direction
speed
MPH
gust
MPH
rain 1hr
in
rain 24hr
in
rain mn
in
humidity
%
barometer
mb
20260503201110 66 96 5.0 13.0 0.00 0.00 0.00 15 1004.6
20260503200843 65 231 6.0 14.0 0.00 0.00 0.00 15 1004.5
20260503200110 65 293 7.0 18.0 0.00 0.00 0.00 15 1004.7
20260503195611 65 45 9.0 18.0 0.00 0.00 0.00 15 1004.7
20260503195112 64 297 9.0 21.0 0.00 0.00 0.00 14 1004.8
20260503194823 65 230 7.0 21.0 0.00 0.00 0.00 13 1004.7
20260503194050 65 10 7.0 15.0 0.00 0.00 0.00 14 1004.9
20260503193552 64 321 8.0 20.0 0.00 0.00 0.00 14 1005.1
20260503193027 64 317 10.0 22.0 0.00 0.00 0.00 13 1005.2
20260503192519 64 268 9.0 22.0 0.00 0.00 0.00 13 1005.1
20260503191955 64 239 9.0 22.0 0.00 0.00 0.00 12 1005.2
20260503191458 63 260 9.0 20.0 0.00 0.00 0.00 11 1005.4
20260503191226 64 261 9.0 21.0 0.00 0.00 0.00 10 1005.3
20260503190457 63 249 11.0 21.0 0.00 0.00 0.00 10 1005.2
20260503185937 63 291 10.0 23.0 0.00 0.00 0.00 8 1005.4
20260503185912 63 275 8.0 21.0 0.00 0.00 0.00 9 1005.5
20260503185119 63 236 9.0 22.0 0.00 0.00 0.00 10 1005.5
20260503184350 63 335 10.0 22.0 0.00 0.00 0.00 11 1005.6
20260503183850 63 328 9.0 22.0 0.00 0.00 0.00 10 1005.8
20260503183329 62 325 11.0 22.0 0.00 0.00 0.00 11 1005.7
20260503183042 62 188 11.0 20.0 0.00 0.00 0.00 8 1005.6
20260503182310 63 287 9.0 19.0 0.00 0.00 0.00 10 1005.7
20260503181809 63 292 9.0 19.0 0.00 0.00 0.00 10 1005.7
20260503181541 62 259 9.0 19.0 0.00 0.00 0.00 12 1005.9
20260503180752 62 300 10.0 20.0 0.00 0.00 0.00 11 1006.0
20260503180251 62 256 9.0 20.0 0.00 0.00 0.00 11 1006.0
20260503175729 63 268 8.0 19.0 0.00 0.00 0.00 10 1006.0
20260503175457 62 244 9.0 19.0 0.00 0.00 0.00 11 1006.0
20260503175048 63 309 7.0 16.0 0.00 0.00 0.00 11 1006.1
20260503174940 63 101 9.0 23.0 0.00 0.00 0.00 9 1006.1
20260503173647 62 264 9.0 23.0 0.00 0.00 0.00 9 1006.0
20260503173122 62 138 7.0 20.0 0.00 0.00 0.00 12 1006.0
20260503172557 62 273 7.0 20.0 0.00 0.00 0.00 11 1005.9
20260503172050 62 30 9.0 18.0 0.00 0.00 0.00 12 1006.1
20260503171524 62 284 9.0 18.0 0.00 0.00 0.00 11 1006.0
20260503171016 62 296 7.0 18.0 0.00 0.00 0.00 14 1006.2
20260503170451 62 258 7.0 24.0 0.00 0.00 0.00 16 1006.0
20260503150459 59 242 9.0 16.0 0.00 0.00 0.00 38 1005.8
20260503140222 59 225 5.0 11.0 0.00 0.00 0.00 42 1005.9
20260503131020 46 162 2.0 6.0 0.00 0.00 0.00 50 1006.1
20260503130953 46 154 2.0 6.0 0.00 0.00 0.00 50 1006.2
20260503120203 42 209 0.0 0.0 0.00 0.00 0.00 59 1006.2
20260503110459 39 223 0.0 2.0 0.00 0.00 0.00 67 1005.7
20260503100212 41 223 2.0 3.0 0.00 0.00 0.00 66 1005.9
20260503090445 42 220 1.0 3.0 0.00 0.00 0.00 64 1006.0
20260503090213 42 220 2.0 3.0 0.00 0.00 0.00 63 1006.0
20260503081454 45 217 1.0 3.0 0.00 0.00 0.00 58 1006.4
20260503080700 45 185 0.0 0.0 0.00 0.00 0.00 57 1006.4
20260503080156 46 185 1.0 2.0 0.00 0.00 0.00 57 1006.5
20260503072526 46 169 1.0 2.0 0.00 0.00 0.00 57 1006.8
20260503072022 45 169 0.0 2.0 0.00 0.00 0.00 54 1006.9
20260503071740 45 169 0.0 2.0 0.00 0.00 0.00 52 1007.1
20260503070942 44 170 0.0 0.0 0.00 0.00 0.00 51 1007.1
20260503070916 44 170 0.0 2.0 0.00 0.00 0.00 53 1007.1
20260503070143 44 170 0.0 2.0 0.00 0.00 0.00 53 1007.2
20260503060110 42 171 0.0 0.0 0.00 0.00 0.00 62 1008.2
20260503055018 41 171 0.0 1.0 0.00 0.00 0.00 61 1008.3
20260503054501 41 171 0.0 1.0 0.00 0.00 0.00 61 1008.3
20260503054003 41 171 0.0 0.0 0.00 0.00 0.00 62 1008.3
20260503053733 41 171 0.0 1.0 0.00 0.00 0.00 62 1008.4
20260503053001 41 171 0.0 1.0 0.00 0.00 0.00 62 1008.4
20260503052732 41 171 0.0 0.0 0.00 0.00 0.00 62 1008.5
20260503052000 41 171 0.0 2.0 0.00 0.00 0.00 62 1008.6
20260503051434 41 171 1.0 2.0 0.00 0.00 0.00 62 1008.6
20260503050930 41 171 1.0 2.0 0.00 0.00 0.00 62 1008.7
20260503050428 41 171 1.0 2.0 0.00 0.00 0.00 63 1008.8
20260503045924 41 171 0.0 2.0 0.00 0.00 0.00 64 1008.8
20260503045422 41 171 0.0 1.0 0.00 0.00 0.00 64 1008.9
20260503044856 41 171 0.0 2.0 0.00 0.00 0.00 64 1008.8
20260503044331 41 171 0.0 2.0 0.00 0.00 0.00 63 1008.8
20260503044034 41 171 1.0 3.0 0.00 0.00 0.00 62 1009.0
20260503043258 41 171 1.0 3.0 0.00 0.00 0.00 62 1008.9
20260503042755 41 171 1.0 4.0 0.00 0.00 0.00 62 1008.9
20260503042230 41 171 1.0 4.0 0.00 0.00 0.00 60 1008.8
20260503041702 41 186 1.0 3.0 0.00 0.00 0.00 61 1008.8
20260503041200 41 186 1.0 1.0 0.00 0.00 0.00 60 1009.1
20260503040906 41 186 1.0 3.0 0.00 0.00 0.00 59 1009.2
20260503040405 41 186 1.0 3.0 0.00 0.00 0.00 59 1009.2
20260503035604 41 187 1.0 3.0 0.00 0.00 0.00 57 1009.3
20260503035600 41 187 1.0 4.0 0.00 0.00 0.00 59 1009.3
20260503035054 41 188 1.0 4.0 0.00 0.00 0.00 58 1009.3
20260503034048 41 187 1.0 3.0 0.00 0.00 0.00 57 1009.5
20260503033545 42 187 2.0 4.0 0.00 0.00 0.00 57 1009.5
20260503033020 42 188 2.0 4.0 0.00 0.00 0.00 54 1009.5
20260503032452 44 210 1.0 4.0 0.00 0.00 0.00 53 1009.4
20260503031950 46 177 2.0 5.0 0.00 0.00 0.00 48 1009.4
20260503031424 50 177 3.0 8.0 0.00 0.00 0.00 41 1009.5
20260503030856 58 209 2.0 8.0 0.00 0.00 0.00 39 1009.6
20260503030353 58 29 2.0 9.0 0.00 0.00 0.00 39 1009.5
20260503025827 58 255 3.0 9.0 0.00 0.00 0.00 39 1009.5
20260503025323 59 355 4.0 12.0 0.00 0.00 0.00 38 1009.6
20260503024758 59 267 5.0 12.0 0.00 0.00 0.00 37 1009.6
20260503024231 59 349 5.0 12.0 0.00 0.00 0.00 36 1009.5
20260503023716 60 290 5.0 13.0 0.00 0.00 0.00 35 1009.6
20260503023215 60 263 5.0 13.0 0.00 0.00 0.00 35 1009.6
20260503022646 59 240 4.0 11.0 0.00 0.00 0.00 36 1009.5
20260503022144 57 0 4.0 10.0 0.00 0.00 0.00 37 1009.5
20260503021641 54 286 3.0 12.0 0.00 0.00 0.00 42 1009.5
20260503021137 51 286 2.0 12.0 0.00 0.00 0.00 44 1009.5
20260503020634 48 248 1.0 3.0 0.00 0.00 0.00 45 1009.4
20260503020132 49 136 2.0 3.0 0.00 0.00 0.00 43 1009.4
20260503015612 49 123 2.0 5.0 0.00 0.00 0.00 41 1009.4
20260503015110 49 82 1.0 5.0 0.00 0.00 0.00 40 1009.3
20260503014610 49 132 1.0 4.0 0.00 0.00 0.00 41 1009.4
20260503014111 49 136 1.0 3.0 0.00 0.00 0.00 40 1009.5
20260503013558 49 136 1.0 3.0 0.00 0.00 0.00 40 1009.3
20260503013052 49 109 2.0 6.0 0.00 0.00 0.00 40 1009.3
20260503012550 50 154 2.0 6.0 0.00 0.00 0.00 39 1009.1
20260503012023 50 163 3.0 5.0 0.00 0.00 0.00 41 1009.1
20260503011751 51 163 2.0 5.0 0.00 0.00 0.00 40 1009.1
20260503010952 51 137 1.0 2.0 0.00 0.00 0.00 40 1009.0
20260503010450 51 137 1.0 2.0 0.00 0.00 0.00 39 1009.1
20260503005945 51 137 1.0 3.0 0.00 0.00 0.00 39 1009.0
20260503005442 52 138 1.0 3.0 0.00 0.00 0.00 38 1009.0
20260503004918 52 138 1.0 4.0 0.00 0.00 0.00 38 1009.0
20260503004914 52 137 1.0 4.0 0.00 0.00 0.00 39 1009.0
20260503003857 53 125 1.0 3.0 0.00 0.00 0.00 37 1009.0
20260503003359 53 125 1.0 4.0 0.00 0.00 0.00 36 1009.1
20260503002831 54 124 2.0 4.0 0.00 0.00 0.00 34 1009.2
20260503002332 55 92 2.0 4.0 0.00 0.00 0.00 32 1009.2
20260503002309 55 86 2.0 5.0 0.00 0.00 0.00 32 1009.1
20260503001245 55 74 2.0 5.0 0.00 0.00 0.00 33 1009.2
20260503001017 55 95 1.0 3.0 0.00 0.00 0.00 32 1009.3
20260503000222 56 95 1.0 3.0 0.00 0.00 0.00 32 1009.3
20260502235726 56 95 2.0 7.0 0.00 0.00 0.00 31 1009.4
20260502235159 58 96 3.0 7.0 0.00 0.00 0.00 28 1009.4
20260502234656 60 103 4.0 9.0 0.00 0.00 0.00 27 1009.3
20260502234132 62 165 4.0 10.0 0.00 0.00 0.00 25 1009.4
20260502233622 62 181 5.0 10.0 0.00 0.00 0.00 25 1009.4
20260502233126 62 200 5.0 8.0 0.00 0.00 0.00 25 1009.5
20260502232600 62 198 5.0 11.0 0.00 0.00 0.00 25 1009.5
20260502232100 62 200 6.0 12.0 0.00 0.00 0.00 25 1009.6
20260502231559 62 230 6.0 12.0 0.00 0.00 0.00 24 1009.7
20260502231101 63 216 7.0 13.0 0.00 0.00 0.00 23 1009.7
20260502230829 63 200 7.0 13.0 0.00 0.00 0.00 23 1009.6
20260502230313 64 205 8.0 15.0 0.00 0.00 0.00 23 1009.8
20260502225521 64 195 7.0 17.0 0.00 0.00 0.00 23 1009.6
20260502225252 63 227 6.0 17.0 0.00 0.00 0.00 22 1009.8
20260502224522 63 0 6.0 14.0 0.00 0.00 0.00 22 1009.8
20260502224003 64 252 6.0 17.0 0.00 0.00 0.00 21 1010.0
20260502223503 64 220 8.0 17.0 0.00 0.00 0.00 22 1009.9
20260502223001 64 230 10.0 18.0 0.00 0.00 0.00 21 1010.1
20260502222452 64 246 9.0 18.0 0.00 0.00 0.00 22 1010.1
20260502222224 63 227 7.0 18.0 0.00 0.00 0.00 21 1010.3
20260502221450 62 199 6.0 18.0 0.00 0.00 0.00 24 1010.2
20260502220947 60 194 5.0 12.0 0.00 0.00 0.00 24 1010.2
20260502220447 60 165 3.0 12.0 0.00 0.00 0.00 25 1010.3
20260502215922 59 174 2.0 4.0 0.00 0.00 0.00 26 1010.4
20260502215358 58 78 2.0 3.0 0.00 0.00 0.00 26 1010.4
20260502214859 58 71 3.0 7.0 0.00 0.00 0.00 25 1010.5
20260502214335 58 125 3.0 7.0 0.00 0.00 0.00 25 1010.6
20260502213835 58 128 3.0 7.0 0.00 0.00 0.00 24 1010.7
20260502213308 59 175 3.0 7.0 0.00 0.00 0.00 24 1010.8
20260502213040 59 109 2.0 6.0 0.00 0.00 0.00 24 1010.9
20260502212240 59 149 2.0 6.0 0.00 0.00 0.00 23 1011.0
20260502211711 59 72 3.0 8.0 0.00 0.00 0.00 23 1011.0
20260502211148 59 111 4.0 8.0 0.00 0.00 0.00 23 1011.1
20260502210622 58 117 4.0 9.0 0.00 0.00 0.00 23 1011.1
20260502210054 58 79 4.0 9.0 0.00 0.00 0.00 22 1011.2
20260502205821 58 107 4.0 9.0 0.00 0.00 0.00 22 1011.4
20260502205049 58 136 4.0 8.0 0.00 0.00 0.00 22 1011.5
20260502204545 58 121 3.0 8.0 0.00 0.00 0.00 21 1011.7
20260502204042 58 111 3.0 8.0 0.00 0.00 0.00 22 1011.5
20260502203537 57 113 5.0 8.0 0.00 0.00 0.00 22 1011.9
20260502203032 57 119 6.0 9.0 0.00 0.00 0.00 23 1011.8
20260502202800 57 106 7.0 10.0 0.00 0.00 0.00 23 1011.9
20260502202026 57 116 6.0 10.0 0.00 0.00 0.00 20 1012.1
20260502201753 58 130 5.0 9.0 0.00 0.00 0.00 21 1012.1